Tracking 28126 objects as of 2-Oct-2023
HD Live streaming from Space Station
objects crossing your sky now

STARLINK-6230

Track STARLINK-6230 now!
10-day predictions
STARLINK-6230 is classified as:


NORAD ID: 57228
Int'l Code: 2023-094L
Perigee: 565.4 km
Apogee: 566.9 km
Inclination: 43.0 °
Period: 95.8 minutes
Semi major axis: 6937 km
RCS: Unknown
Launch date: July 7, 2023
Source: United States (US)
Launch site: AIR FORCE WESTERN TEST RANGE (AFWTR)
Your satellite tracking list
Your tracking list is empty




NASA's NSSDC Master Catalog

Two Line Element Set (TLE):
1 57228U 23094L   23274.77605682  .00013101  00000-0  98261-3 0  9996
2 57228  43.0016 185.8840 0001135 260.1897  99.8817 15.02555599 13436
Source of the keplerian elements: AFSPC